Back to catalog

GRUS-3F

AliveScienceSSO
NORAD 69894·PAYLOAD·🇦🇺 Australia

Launched Jul 7, 2026 from Vandenberg Space Force Base

Loading…

Next Passes (next 24 hours)

TLE

FreshSource: Space-Track

Epoch: Sep 14, 2026, 12:08 UTC

1 69894U 26156AB  26257.50623564  .00000567  00000-0  61984-4 0  9999
2 69894  97.7471 156.7963 0004175 282.8832  77.1920 14.91624533 10319

Track GRUS-3F in real time with AllMySat

Download on the App Store